This is the latest recevied weather packets stored in our database for station/object IW4CYE-7. If no packets are shown the sender has not sent any weather packets the latest 10 day(s).
| Time | Temp. | Humidity | Pressure | Rain* | Wind** | Luminosity | Snow |
|---|---|---|---|---|---|---|---|
| 1787831241 | 31.67° C | 67% | 1005.4 hPa | 0 mm | - | - | - |
| 1787830641 | 31.67° C | 66% | 1005.4 hPa | 0 mm | - | - | - |
| 1787830041 | 31.67° C | 66% | 1005.4 hPa | 0 mm | - | - | - |
| 1787829441 | 32.22° C | 66% | 1005.4 hPa | 0 mm | - | - | - |
| 1787828841 | 31.67° C | 65% | 1005.8 hPa | 0 mm | - | - | - |
| 1787828241 | 31.67° C | 63% | 1005.4 hPa | 0 mm | - | - | - |
| 1787827641 | 31.67° C | 64% | 1005.8 hPa | 0 mm | - | - | - |
| 1787827041 | 31.11° C | 66% | 1005.8 hPa | 0 mm | - | - | - |
| 1787826441 | 31.11° C | 67% | 1005.8 hPa | 0 mm | - | - | - |
| 1787825841 | 30.56° C | 70% | 1005.8 hPa | 0 mm | - | - | - |
| 1787825241 | 30° C | 72% | 1005.8 hPa | 0 mm | - | - | - |
| 1787824641 | 30° C | 73% | 1005.8 hPa | 0 mm | - | - | - |
| 1787824041 | 30° C | 74% | 1005.8 hPa | 0 mm | - | - | - |
| 1787823441 | 29.44° C | 76% | 1005.8 hPa | 0 mm | - | - | - |
| 1787822841 | 29.44° C | 76% | 1006.1 hPa | 0 mm | - | - | - |
| 1787822241 | 28.89° C | 78% | 1006.4 hPa | 0 mm | - | - | - |
| 1787821641 | 28.33° C | 80% | 1006.1 hPa | 0 mm | - | - | - |
| 1787821041 | 28.33° C | 81% | 1006.1 hPa | 0 mm | - | - | - |
| 1787820441 | 27.78° C | 82% | 1006.1 hPa | 0 mm | - | - | - |
| 1787819841 | 27.78° C | 82% | 1006.4 hPa | 0 mm | - | - | - |
| 1787819241 | 27.78° C | 83% | 1006.4 hPa | 0 mm | - | - | - |
| 1787818641 | 27.22° C | 83% | 1006.4 hPa | 0 mm | - | - | - |
| 1787818041 | 26.67° C | 85% | 1006.1 hPa | 0 mm | - | - | - |
| 1787817441 | 26.67° C | 85% | 1006.1 hPa | 0 mm | - | - | - |
| 1787816841 | 25.56° C | 86% | 1006.1 hPa | 0 mm | - | - | - |
* Rain latest hour (hover to see other rain measurements)
** Current wind speed in m/s (hover to see current wind gust speed)